Limon, CO

10:27 PM MDT on May 20, 2018 (GMT -0600)
Limon Municipal

Weather History for KLIC - October, 2011

Change the Weather History Date:

Thursday, October 20, 2011

  Actual Average Record
Temperature  
Mean Temperature 45 °F -  
Max Temperature 68 °F - 82 °F (2007)
Min Temperature 22 °F - 21 °F (2002)
Degree Days  
Heating Degree Days 20    
Month to date heating degree days 294  
Cooling Degree Days 0    
Month to date cooling degree days 0  
Moisture  
Dew Point 23 °F    
Average Humidity 56    
Maximum Humidity 96    
Minimum Humidity 16    
Precipitation  
Precipitation 0.00 in - 0.04 in (2006)
Month to date precipitation  
Year to date precipitation  
Sea Level Pressure  
Sea Level Pressure 29.98 in    
Wind  
Wind Speed 9 mph (NNW)    
Max Wind Speed 26 mph    
Max Gust Speed 31 mph    
Visibility 10 miles    
Events      
T = Trace of Precipitation, MM = Missing Value Source: NWS Daily Summary

Daily Weather History Graph

Daily Weather History Graph

Search for Another Location

Airport or City:

Astronomy

Oct. 20, 2011 Rise Set
Actual Time 7:09 AM MDT 6:08 PM MDT
Civil Twilight 6:42 AM MDT 6:36 PM MDT
Nautical Twilight 6:10 AM MDT 7:07 PM MDT
Astronomical Twilight 5:39 AM MDT 7:38 PM MDT
Moon No Moon Rise 2:17 PM MDT (10/20)
Length of Visible Light 11h 53m
Length of Day
10h 59m
Last Quarter, 43% of the Moon is Illuminated
Oct 20
Last Quarter
Oct 26
New
Nov 2
First Quarter
Nov 10
Full
Nov 18
Last Quarter

Hourly Weather History & Observations

Time (MDT) Temp. Windchill Dew Point Humidity Pressure Visibility Wind Dir Wind Speed Gust Speed Precip Events Conditions
12:55 AM 36.0 °F 29.0 °F 24.1 °F 62% 29.95 in 10.0 mi SW 9.2 mph - N/A   Clear
1:55 AM 36.0 °F 29.0 °F 23.0 °F 59% 29.94 in 10.0 mi SW 9.2 mph - N/A   Clear
2:55 AM 27.0 °F - 21.9 °F 81% 29.97 in 10.0 mi Calm Calm - N/A   Clear
3:55 AM 30.0 °F 26.5 °F 21.9 °F 72% 29.94 in 10.0 mi SW 3.5 mph - N/A   Clear
4:55 AM 24.1 °F - 21.0 °F 88% 29.95 in 10.0 mi Calm Calm - N/A   Clear
5:55 AM 23.0 °F 17.0 °F 21.0 °F 92% 29.97 in 10.0 mi North 4.6 mph - N/A   Clear
6:55 AM 24.1 °F 17.0 °F 21.0 °F 88% 29.99 in 10.0 mi North 5.8 mph - N/A   Clear
7:55 AM 28.9 °F 22.8 °F 25.0 °F 85% 30.00 in 10.0 mi NNW 5.8 mph - N/A   Clear
8:55 AM 46.9 °F - 28.9 °F 50% 29.99 in 10.0 mi WNW 8.1 mph - N/A   Clear
9:55 AM 61.0 °F - 23.0 °F 23% 29.96 in 10.0 mi NW 17.3 mph - N/A   Clear
10:55 AM 64.0 °F - 23.0 °F 21% 29.96 in 10.0 mi NNW 17.3 mph - N/A   Clear
11:55 AM 64.9 °F - 19.9 °F 18% 29.97 in 10.0 mi North 21.9 mph 31.1 mph N/A   Clear
12:55 PM 64.9 °F - 21.0 °F 19% 29.93 in 10.0 mi NNW 20.7 mph 28.8 mph N/A   Clear
1:55 PM 66.0 °F - 21.0 °F 18% 29.94 in 10.0 mi NNW 17.3 mph 26.5 mph N/A   Clear
2:55 PM 66.9 °F - 21.9 °F 18% 29.96 in 10.0 mi NNW 17.3 mph 25.3 mph N/A   Clear
3:55 PM 66.9 °F - 19.9 °F 17% 29.96 in 10.0 mi North 15.0 mph 25.3 mph N/A   Clear
4:55 PM 64.9 °F - 21.0 °F 19% 29.99 in 10.0 mi North 15.0 mph - N/A   Clear
8:55 PM 34.0 °F 31.0 °F 27.0 °F 75% 30.10 in 10.0 mi NNW 3.5 mph - N/A   Clear
9:55 PM 32.0 °F - 26.1 °F 79% 30.08 in 10.0 mi Calm Calm - N/A   Clear
11:55 PM 30.0 °F 25.2 °F 25.0 °F 82% 30.08 in 10.0 mi North 4.6 mph - N/A   Clear